Location: Frizzleburg
(41.0764°N, 80.4548°W)
Time: 12:26:26
(UTC+00:00)

NOSS 3-3 (C) - Visible Passes

Search period start: 18 February 2020 00:00
Search period end: 28 February 2020 00:00
Orbit: 843 x 1369 km, 63.4° (Epoch: 08 February)

Date Brightness Start Highest point End Pass type
(mag) Time Alt. Az. Time Alt. Az. Time Alt. Az.
18 Feb 6.4 10:15:18 10° SSE 10:19:25 20° ESE 10:23:48 10° ENE visible
19 Feb 6.8 09:33:56 10° ESE 09:35:12 11° ESE 09:36:28 10° E visible
19 Feb 4.1 11:18:57 10° SSW 11:24:44 80° ESE 11:31:14 10° NE visible
20 Feb 4.8 10:34:37 10° S 10:40:08 48° ESE 10:46:13 10° NE visible
21 Feb 5.7 09:50:50 10° SSE 09:55:41 28° ESE 10:00:55 10° NE visible
21 Feb 4.2 11:40:27 10° WSW 11:46:09 50° NW 11:52:32 10° NNE visible
22 Feb 6.3 09:07:58 10° SE 09:11:23 16° ESE 09:14:57 10° ENE visible
22 Feb 3.9 10:55:26 10° SW 11:01:15 78° NW 11:07:47 10° NNE visible
23 Feb 4.2 10:11:44 15° SSW 10:16:32 66° ESE 10:22:55 10° NE visible
24 Feb 5.0 09:29:17 25° SSE 09:32:00 39° ESE 09:37:49 10° NE visible
24 Feb 4.5 11:17:18 10° WSW 11:22:50 39° NW 11:29:00 10° NNE visible
25 Feb 5.7 08:46:40 22° ESE 08:47:36 23° ESE 08:52:19 10° ENE visible
25 Feb 4.0 10:34:09 23° WSW 10:37:50 59° NW 10:44:20 10° NNE visible
26 Feb 6.4 08:03:52 12° E 08:03:52 12° E 08:05:44 10° E visible
26 Feb 3.8 09:51:20 50° SSW 09:53:01 88° ESE 09:59:32 10° NE visible
27 Feb 4.4 09:08:25 54° ESE 09:08:25 54° ESE 09:14:34 10° NE visible
27 Feb 4.9 10:55:53 17° W 10:59:36 31° NW 11:05:27 10° NNE visible
